STARLINK-25 (44239 NORAD) Tracking and Keplerian Element Data

This shows tracking and keplerian element data for the satellite.

Feedback or suggestion? Click here.




ElementValue
Catalog44239
NameSTARLINK-25
Epoch Orbit7098
Epoch Day245.30010903
Epoch Year2020
RAAN191.8643
Inclination53.0083
Eccentricity0.0002866
Argument of Perigee256.419
Mean Anonmoly224.7475
Mean Motion16.43061467
Decay Rate0.76604941
L11 44239U 19029E 20245.30010903 .76604941 12441-4 37768-2 0 9998
L22 44239 53.0083 191.8643 0002866 256.4190 224.7475 16.43061467 70987



Live tracking and technical data element details for STARLINK-25 (NORAD 44239). STARLINK-25 can be tracked NOW for your location showing map with azimuth and elevation plus other details from your city location.







IsCatalogInMostPopularTable: catalog: 44239, numindb: 305
Update: records affected: 1



GetName: 44239 STARLINK-25

Hit Count: updated at: Thu, 15 May 2025 18:43:57 GMT